Weather History for Fort Stockton, TX

Change the Weather History Date:

Friday, February 28, 2014

  Actual Average Record
Temperature  
Mean Temperature 67 °F -  
Max Temperature 82 °F 65 °F 89 °F (2006)
Min Temperature 52 °F 40 °F 30 °F (2013)
Cooling Degree Days 2    
Growing Degree Days 17 (Base 50)    
Moisture  
Dew Point 27 °F    
Average Humidity 25    
Maximum Humidity 38    
Minimum Humidity 12    
Precipitation  
Precipitation 0.00 in - - ()
Sea Level Pressure  
Sea Level Pressure 29.75 in    
Wind  
Wind Speed 13 mph (WSW)    
Max Wind Speed 22 mph    
Max Gust Speed 34 mph    
Visibility 10 miles    
Events      
Averages and records for this station are not official NWS values.
T = Trace of Precipitation, MM = Missing Value Source: NWS Daily Summary

Daily Weather History Graph

Daily Weather History Graph

Search for Another Location

Airport:

Trip Planner

Search our weather history database for the weather conditions in past years. The results will help you decide how hot, cold, wet, or windy it might be!

Date:

Astronomy

Feb. 28, 2014 Rise Set
Actual Time 7:19 AM CST 6:49 PM CST
Civil Twilight 6:54 AM CST 7:13 PM CST
Nautical Twilight 6:26 AM CST 7:41 PM CST
Astronomical Twilight 5:59 AM CST 8:09 PM CST
Moon 6:34 AM CST (2/28) 6:27 PM CST (2/28)
Length of Visible Light 12h 18m
Length of Day
11h 30m
Waning Crescent, 1% of the Moon is Illuminated
Feb 28
Waning Crescent
Mar 1
New
Mar 8
First Quarter
Mar 16
Full
Mar 23
Last Quarter

Hourly Weather History & Observations

Time (CST) Temp. Dew Point Humidity Pressure Visibility Wind Dir Wind Speed Gust Speed Precip Events Conditions
12:53 AM 57.9 °F 26.1 °F 30% 29.68 in 10.0 mi SSW 13.8 mph - N/A   Clear
1:53 AM 57.9 °F 26.1 °F 30% 29.69 in 10.0 mi SSW 13.8 mph - N/A   Clear
2:53 AM 59.0 °F 25.0 °F 27% 29.68 in 10.0 mi SSW 13.8 mph - N/A   Clear
3:53 AM 55.9 °F 26.1 °F 32% 29.68 in 10.0 mi SW 13.8 mph - N/A   Clear
4:53 AM 57.0 °F 26.1 °F 30% 29.70 in 10.0 mi West 10.4 mph - N/A   Clear
5:53 AM 52.0 °F 27.0 °F 38% 29.73 in 10.0 mi West 8.1 mph - N/A   Clear
6:53 AM 57.0 °F 28.9 °F 34% 29.75 in 10.0 mi West 10.4 mph - N/A   Clear
7:53 AM 57.9 °F 30.9 °F 36% 29.79 in 10.0 mi WSW 9.2 mph - N/A   Clear
8:53 AM 64.0 °F 30.9 °F 29% 29.82 in 10.0 mi West 9.2 mph - N/A   Clear
9:53 AM 71.1 °F 30.9 °F 23% 29.82 in 10.0 mi West 12.7 mph - N/A   Clear
10:53 AM 75.0 °F 30.9 °F 20% 29.81 in 10.0 mi West 18.4 mph 28.8 mph N/A   Clear
11:53 AM 77.0 °F 28.9 °F 17% 29.79 in 10.0 mi West 19.6 mph 34.5 mph N/A   Clear
12:53 PM 78.1 °F 28.9 °F 17% 29.78 in 10.0 mi WNW 19.6 mph 32.2 mph N/A   Clear
1:53 PM 80.1 °F 25.0 °F 13% 29.75 in 10.0 mi WNW 19.6 mph 31.1 mph N/A   Clear
2:53 PM 82.0 °F 25.0 °F 12% 29.72 in 10.0 mi West 21.9 mph 31.1 mph N/A   Clear
3:53 PM 82.0 °F 25.0 °F 12% 29.71 in 10.0 mi West 12.7 mph 24.2 mph N/A   Clear
4:53 PM 82.0 °F 24.1 °F 12% 29.71 in 10.0 mi WNW 15.0 mph 23.0 mph N/A   Clear
5:53 PM 80.1 °F 24.1 °F 13% 29.72 in 10.0 mi West 11.5 mph - N/A   Clear
6:53 PM 72.0 °F 27.0 °F 19% 29.74 in 10.0 mi West 5.8 mph - N/A   Clear
7:53 PM 66.0 °F 28.0 °F 24% 29.77 in 10.0 mi WSW 4.6 mph - N/A   Clear
8:53 PM 63.0 °F 28.0 °F 27% 29.79 in 10.0 mi SW 8.1 mph - N/A   Clear
9:53 PM 60.1 °F 28.9 °F 31% 29.80 in 10.0 mi SSW 5.8 mph - N/A   Clear
10:53 PM 57.9 °F 28.9 °F 33% 29.81 in 10.0 mi SW 5.8 mph - N/A   Clear
11:53 PM 57.9 °F 28.9 °F 33% 29.81 in 10.0 mi WSW 5.8 mph - N/A   Clear